Погода в Моссе

Норвегия     59°26′00″N   10°39′34″E
темп.,
°C
ветер,
м/с
пор.,
м/с
влажн.,
%
обл.,
%
осадки,
мм/ч
давл.,
гПа
погр.,
м
1 декабря, ср
ср101:00−5сз1187100 0.0 998127
04:00−4всв1178100 0.0 997121
07:00−4ссв2278100 0.0 995123
10:00−4св2473100 0.0 996218
13:00−3ссв3566100 0.0 994340
16:00−4ссв4666100 0.0 993361
19:00−4ссв4863100 0.0 992406
22:00−4ссв4959100 0.0 992411
2 декабря, чт
чт201:00−4с4957100 0.0 992412
04:00−4с41155100 0.0 993423
07:00−3с38587 0.0 993262
10:00−4с24570 0.0 995137
13:00−3с11525 0.0 995110
16:00−3с115552 0.0 996125
19:00−4св115897 0.0 99797
22:00−4всв22635 0.0 998104
3 декабря, пт
пт301:00−5всв226919 0.0 999127
04:00−5всв347175 0.0 999178
07:00−5всв3567100 0.0 1000256
10:00−5всв3583100 0.2 1000297
13:00−3в2678100 0.6 999583
16:00−3в3792100 1.4 998513
19:00−3всв3795100 4.1 998510
22:00−2всв3796100 2.7 997469
4 декабря, сб
сб401:00−2в41094100 5.0 996643
04:00−2всв51091100 1.4 996652
07:00−2св51193100 3.1 998768
10:00−3св61095100 3.3 1000648
13:00−3св61194100 6.2 1001717
16:00−3св61294100 2.3 1004767
19:00−3ссв61194100 3.9 1007784
22:00−4ссв61194100 2.0 1009774
5 декабря, вс
вс501:00−4ссв61194100 3.7 1012777
04:00−5ссв61094100 1.8 1014710
07:00−5ссв598698 2.5 1017613
10:00−7ссв598982 0.0 1019391
13:00−6ссв478893 0.0 1021387
16:00−10ссв469582 0.0 1022174
19:00−10ссв3594100 0.0 1023169
22:00−9ссв3491100 0.0 1024173